Tracking 19242 objects as of 15-Aug-2018
HD Live streaming from Space Station
objects crossing your sky now

NOAA 16 DEB

Track NOAA 16 DEB now!
10-day predictions


NORAD ID: 41540
Int'l Code: 2000-055NQ
Perigee: 853.4 km
Apogee: 906.8 km
Inclination: 98.9 °
Period: 102.4 minutes
Semi major axis: 7251 km
RCS: Unknown
Launch date: September 21, 2000
Source: United States (US)
Launch site: AIR FORCE WESTERN TEST RANGE (AFWTR)

Note: This is SATELLITE DEBRIS
aabbcc
Your satellite tracking list
Your tracking list is empty




NASA's NSSDC Master Catalog

Two Line Element Set (TLE):
1 41540U 00055NQ  18227.12633754  .00000268  00000-0  18878-3 0  9996
2 41540  98.8781 291.7889 0036762 352.6408   7.4216 14.06037024120003
Source of the keplerian elements: AFSPC